Aérodrome :
LOGIN :

S'inscrire | Disclaimer

   EN    FR    IT 

 










Légende :    VFR   VFR Marginal   IFR   IFR Intensif   IFR Très Intensif
Visi : 
Plafond : 
>= 8 km
>= 3000ft
5 à 8 km
1000 à 3000 ft
1500m à 5 km
500 à 1000 ft
800 à 1500m
200 à 500 ft
< 800m
< 200 ft
Symboles :   Orages  Brouillard  Fortes neiges  Fortes précipitations  Vent > 20 kt
SIGMETs :   Divers  Orages  Givrage  Turbulence  Onde Orograph.  Cendres Volcan.






- Altitude de l'aérodrome : 327 ft
- Code IATA : BHX


EGBB - Birmingham

DERNIER METAR :
  • 221420Z 32012KT 9999 BKN018 07/04 Q1037

METARs EXPIRÉS :
  • 221350Z 32011KT 9999 BKN019 07/04 Q1037
  • 221320Z 31009KT 9999 BKN020 07/04 Q1037
  • 221250Z 31007KT 9999 BKN021 07/03 Q1037
  • 221220Z 31008KT 9999 BKN020 07/03 Q1037
  • 221150Z 31008KT 9999 BKN020 07/03 Q1037

TAF TAF EGBB
Valide du 22 à 12h jusqu'au 23 à 12h UTC


221104Z 2212/2312 28006KT 9999 BKN020
PROB30
TEMPO 2300/2312 BKN014
ATIS : +44 121 780 0910



MET'MAP, la Météo Aéronautique d'un coup d'oeil ! - Copyright ORBIFLY Décembre 2007 - Disclaimer

ORBIFLY MET'MAP TEAM :

Programmation & Développement : Alexandra Zaïnal
Sur une idée originale de : Baudouin d'Aumeries
Assistance à la programmation : Marc-Olivier Méhu
Soutien technique & logistique : Manuel Goepfert

Contact : metmap@orbifly.com




SOURCES & CREDITS :

   NOAA